Location: Alphaba - Cockrum - Ingrams Mill Volunteer Fire Department Station 2
(34.7915°N, 89.7598°W)
Time: 08:36:31
(UTC+00:00)

YAOGAN 1 - Pass Details

Date: 11 December 2025
Orbit: 605 x 607 km, 97.8° (Epoch: 24 January)

Event Time Altitude Azimuth Distance (km) Brightness Sun altitude
Rises 23:18:03 0° 119° (ESE) 2,856 5.6 -6.3°
Reaches altitude 10° 23:21:34 10° 87° (E) 1,958 4.5 -7.0°
Maximum altitude 23:23:06 12° 66° (ENE) 1,844 4.3 -7.3°
Drops below altitude 10° 23:24:38 10° 45° (NE) 1,962 4.6 -7.6°
Sets 23:28:10 0° 14° (NNE) 2,872 5.6 -8.2°
